Location: Barcelona
(41.3830°N, 2.1830°E)
Time: 07:19:56
(UTC+01:00)

ISS - Pass Details

Date: 22 November 2020
Orbit: 418 x 420 km, 51.6° (Epoch: 04 December)

Event Time Altitude Azimuth Distance (km) Brightness Sun altitude
Rises 18:03:04 0° 221° (SW) 2,348 1.3 -7.1°
Reaches altitude 10° 18:05:11 10° 216° (SW) 1,488 0.0 -7.5°
Maximum altitude 18:08:26 50° 140° (SE) 539 -3.4 -8.1°
Enters shadow 18:11:26 12° 65° (ENE) 1,392 -1.8 -8.6°
